Location: Hains Lake
(37.8540°N, 99.8578°W)
Time: 21:07:29
(UTC+00:00)

Vanguard 2 Rocket - Pass Details

Date: 20 April 2021
Orbit: 553 x 3326 km, 32.9° (Epoch: 05 May)

Event Time Altitude Azimuth Distance (km) Brightness Sun altitude
Rises 00:05:34 0° 276° (W) 7,284 13.6 13.5°
Reaches altitude 10° 00:10:31 10° 274° (W) 6,287 15.0 12.5°
Maximum altitude 00:30:15 66° 199° (SSW) 3,001 9.7 8.6°
Drops below altitude 10° 00:43:36 10° 120° (ESE) 4,461 9.9 6.0°
Sets 00:46:29 0° 118° (ESE) 5,150 10.1 5.5°
